Regional Weather Roundup
Issued by NWS Sterling, VA

Home | Current Version | Previous Version | Text Only | Print | Product List | Glossary On
Versions: 1 2 3 4 5 6 7 8 9 10 11 12 13 14 15 16 17 18 19 20 21 22 23 24 25 26 27
000
ASUS41 KLWX 201910
RWRLWX

REGIONAL WEATHER ROUNDUP
NATIONAL WEATHER SERVICE BALTIMORE MD/WASHINGTON DC
200 PM EST MON NOV 20 2017

Note: "FAIR" indicates few or no clouds below 12,000 feet
with no significant weather and/or obstructions to visibility.
 TC=TEMPERATURE CELSIUS

 * =Non NWS site. Station does not report precipitation (e.g. rain,
    snow, etc.), thunder, or fog.

DCZ001-MDZ009-015-VAZ040>042-051-053>054-202000-
WASHINGTON METRO

CITY           SKY/WX    TMP DP  RH WIND       PRES   REMARKS
WASHINGTON NAT MOSUNNY   51  21  30 W17       30.18F
DULLES         MOSUNNY   50  22  33 W8        30.17F
ANDREWS AFB    SUNNY     50  22  33 W13       30.17S
FT BELVOIR     SUNNY     53  19  27 W8        30.18F
QUANTICO       SUNNY     54  21  27 W6        30.20F
COLLEGE PARK*  SUNNY     48  20  33 SW8G16    30.17F
LEESBURG*      SUNNY     52  27  37 W9        30.16F
MANASSAS*      SUNNY     51  21  30 SW8       30.18F
GAITHERSBURG*  SUNNY     48  22  35 W14       30.16F

$$

MDZ006>007-011-014-202000-
BALTIMORE METRO

CITY           SKY/WX    TMP DP  RH WIND       PRES   REMARKS
BWI AIRPORT    MOSUNNY   49  23  36 W13       30.15F
MD SCIENCE CTR   N/A     49  20  31 MISG      30.18S
MARTIN STATE   SUNNY     48  25  40 SW8G17    30.17F
FORT MEADE*    SUNNY     48  23  37 SW13      30.19S

$$

MDZ012-015-019>023-202000-
MARYLAND EASTERN SHORE

CITY           SKY/WX    TMP DP  RH WIND       PRES   REMARKS
OCEAN CITY     SUNNY     48  25  40 W14G24    30.18S
SALISBURY      SUNNY     49  24  37 W14       30.18S
CAMBRIDGE*     SUNNY     50  23  34 W12       30.19S
EASTON*        SUNNY     50  19  29 W9G18     30.21S

$$

MDZ017>025-202000-
SOUTHERN MARYLAND

CITY           SKY/WX    TMP DP  RH WIND       PRES   REMARKS
PATUXENT RIVER MOSUNNY   51  24  34 W14       30.19S
ST INIGOES     SUNNY     51  26  37 W10G17    30.19F
LEONARDTOWN*   SUNNY     50  25  37 SW12      30.20F

$$

MDZ003>005-202000-
NORTH CENTRAL MARYLAND

CITY           SKY/WX    TMP DP  RH WIND       PRES   REMARKS
FREDERICK*     SUNNY     48  16  27 W12       30.18F
HAGERSTOWN APT SUNNY     47  20  34 W10       30.12F
WESTMINSTER*   SUNNY     45  23  42 W12G17    30.12F

$$

MDZ501>502-202000-
WESTERN MARYLAND

CITY           SKY/WX    TMP DP  RH WIND       PRES   REMARKS
OAKLAND*       SUNNY     34  21  60 SW9       30.04S WCI  26
CUMBERLAND*    SUNNY     46  23  39 S14       30.17S

$$

VAZ025>031-202000-
SHENANDOAH VALLEY

CITY           SKY/WX    TMP DP  RH WIND       PRES   REMARKS
WINCHESTER*    SUNNY     46  21  36 SW9G16    30.14S
FRONT ROYAL*   SUNNY     50  21  32 MISG      30.14F
LURAY*         SUNNY     50  21  32 S9G17     30.16S
NEW MARKET*    SUNNY     49  19  31 S12       30.15F
STAUNTON*      SUNNY     46  20  35 S13       30.19F
WAYNESBORO*    SUNNY     47  20  33 W8        30.17F

$$

WVZ021-048>050-054>055-202000-
EASTERN WEST VIRGINIA PANHANDLE

CITY           SKY/WX    TMP DP  RH WIND       PRES   REMARKS
MARTINSBURG    SUNNY     49  20  31 W12       30.13F
PETERSBURG*    SUNNY     49  20  32 CALM      30.14F

$$

VAZ036>039-050-202000-
CENTRAL FOOTHILLS

CITY           SKY/WX    TMP DP  RH WIND       PRES   REMARKS
CHARLOTTESVILL SUNNY     52  19  27 VRB3      30.18F
CULPEPER*      SUNNY     52  19  27 SW12G17   30.19F
ORANGE*        SUNNY     52  21  30 SW9       30.19F
GORDONSVILLE*  SUNNY     52  21  29 SW9       30.18F
WARRENTON*     NOT AVBL

$$

VAZ055>057-202000-
NORTH AND CENTRAL PIEDMONT

CITY           SKY/WX    TMP DP  RH WIND       PRES   REMARKS
FREDERICKSBRG* SUNNY     53  24  32 W7        30.19S
STAFFORD*      SUNNY     51  20  29 W7G16     30.23S

$$

NCZ024-NYZ072-PAZ021-071-VAZ022-071-202000-
OTHER REGIONAL OBSERVATIONS

CITY           SKY/WX    TMP DP  RH WIND       PRES   REMARKS
NEW YORK CITY  SUNNY     45  21  38 W8G23     30.05R
PHILADELPHIA   MOSUNNY   47  22  37 W22       30.12S
PITTSBURGH     MOSUNNY   40  22  48 SW12G21   30.08F
ROANOKE        SUNNY     50  22  33 W8        30.22F
RICHMOND       SUNNY     49  22  34 SW6       30.21F
RALEIGH        MOSUNNY   56  23  27 CALM      30.23F

$$

ANZ530>537-202000-
MARINE OBSERVATIONS

STATION/POSITION TIME  TEMP    WIND        PRES
                       AIR SEA DIR/SP/G
                 (UTC) (F)     (DEG/KT/KT) (MB)
THOMAS PT LIGHT  1900   48 53  250/ 11/ 13   N/A
BALT KEY BRIDGE  1848   47     250/ 14/ 19 1021.1S
COVE POINT       1848   48     290/ 13/ 16 1022.6F
LEWISETTA        1848   50 52  290/ 10/ 13 1022.5F
SOLOMONS ISLAND  1848   51 54  260/  9/ 13 1021.9F
PINEY POINT      1848          330/ 12/ 13   N/A

$$





USA.gov is the U.S. government's official web portal to all federal, state and local government web resources and services.